Phoenix-Mesa Gateway Airport, AZ

9:46 PM MST on November 24, 2017 (GMT -0700)
Phoenix-Mesa Gateway Airport

Weather History for KIWA - July, 2013

Change the Weather History Date:

Saturday, July 20, 2013

  Actual Average Record
Temperature  
Mean Temperature 84 °F -  
Max Temperature 98 °F 101 °F 111 °F (2000)
Min Temperature 71 °F 79 °F 71 °F (2013)
Cooling Degree Days 20    
Growing Degree Days 34 (Base 50)    
Moisture  
Dew Point 65 °F    
Average Humidity 59    
Maximum Humidity 94    
Minimum Humidity 16    
Precipitation  
Precipitation 0.80 in - - ()
Sea Level Pressure  
Sea Level Pressure 29.85 in    
Wind  
Wind Speed 5 mph (South)    
Max Wind Speed 26 mph    
Max Gust Speed 30 mph    
Visibility 10 miles    
Events Rain , Thunderstorm    
Averages and records for this station are not official NWS values.
T = Trace of Precipitation, MM = Missing Value Source: NWS Daily Summary

Daily Weather History Graph

Daily Weather History Graph

Search for Another Location

Airport or City:

Trip Planner

Search our weather history database for the weather conditions in past years. The results will help you decide how hot, cold, wet, or windy it might be!

Date:

Astronomy

Jul. 20, 2013 Rise Set
Actual Time 5:31 AM MST 7:34 PM MST
Civil Twilight 5:03 AM MST 8:02 PM MST
Nautical Twilight 4:29 AM MST 8:35 PM MST
Astronomical Twilight 3:53 AM MST 9:12 PM MST
Moon 5:41 PM MST (7/20) 3:14 AM MST (7/20)
Length of Visible Light 14h 58m
Length of Day
14h 02m
Waxing Gibbous, 94% of the Moon is Illuminated
Jul 20
Waxing Gibbous
Jul 22
Full
Jul 29
Last Quarter
Aug 6
New
Aug 14
First Quarter

Hourly Weather History & Observations

Time (MST) Temp. Heat Index Dew Point Humidity Pressure Visibility Wind Dir Wind Speed Gust Speed Precip Events Conditions
12:15 AM 82.4 °F 83.4 °F 62.6 °F 51% 29.87 in 10.0 mi Calm Calm - N/A   Clear
12:35 AM 82.4 °F 82.9 °F 60.8 °F 48% 29.87 in 10.0 mi Calm Calm - N/A   Clear
12:55 AM 82.4 °F 83.4 °F 62.6 °F 51% 29.88 in 10.0 mi Calm Calm - N/A   Clear
1:15 AM 82.4 °F 84.6 °F 66.2 °F 58% 29.88 in 10.0 mi Calm Calm - N/A   Clear
1:35 AM 82.4 °F 83.9 °F 64.4 °F 54% 29.87 in 10.0 mi WNW 4.6 mph - N/A Thunderstorm Clear
1:55 AM 82.4 °F 83.4 °F 62.6 °F 51% 29.87 in 10.0 mi WNW 5.8 mph - N/A   Clear
2:15 AM 82.4 °F 83.4 °F 62.6 °F 51% 29.87 in 10.0 mi WNW 3.5 mph - N/A   Clear
2:35 AM 80.6 °F 81.8 °F 62.6 °F 54% 29.87 in 10.0 mi Calm Calm - N/A   Clear
2:55 AM 82.4 °F 83.4 °F 62.6 °F 51% 29.87 in 10.0 mi East 3.5 mph - N/A   Clear
3:15 AM 80.6 °F 81.8 °F 62.6 °F 54% 29.86 in 10.0 mi SE 4.6 mph - N/A   Clear
3:35 AM 80.6 °F 81.8 °F 62.6 °F 54% 29.86 in 10.0 mi South 5.8 mph - N/A   Clear
3:55 AM 80.6 °F 81.8 °F 62.6 °F 54% 29.85 in 10.0 mi SSW 3.5 mph - N/A   Clear
4:15 AM 80.6 °F 81.8 °F 62.6 °F 54% 29.85 in 10.0 mi South 4.6 mph - N/A   Clear
4:35 AM 80.6 °F 81.8 °F 62.6 °F 54% 29.85 in 10.0 mi WSW 3.5 mph - N/A   Clear
4:47 AM 80.6 °F 81.8 °F 62.6 °F 54% 29.85 in 20.0 mi Calm Calm - N/A   Mostly Cloudy
4:55 AM 80.6 °F 81.8 °F 62.6 °F 54% 29.86 in 10.0 mi Calm Calm - N/A   Clear
5:15 AM 80.6 °F 81.8 °F 62.6 °F 54% 29.87 in 10.0 mi Calm Calm - N/A   Clear
5:35 AM 80.6 °F 82.3 °F 64.4 °F 58% 29.87 in 10.0 mi Calm Calm - N/A   Clear
5:47 AM 80.6 °F 82.7 °F 66.2 °F 61% 29.88 in 30.0 mi Calm Calm - N/A   Mostly Cloudy
6:47 AM 82.4 °F 84.6 °F 66.2 °F 58% 29.90 in 30.0 mi NW 9.2 mph - N/A   Mostly Cloudy
7:47 AM 84.2 °F 86.6 °F 66.2 °F 55% 29.92 in 30.0 mi NNW 11.5 mph - N/A   Mostly Cloudy
8:47 AM 84.2 °F 85.6 °F 64.4 °F 51% 29.92 in 30.0 mi NNW 4.6 mph - N/A   Mostly Cloudy
9:47 AM 87.8 °F 89.4 °F 64.4 °F 46% 29.91 in 30.0 mi West 5.8 mph - N/A   Scattered Clouds
10:47 AM 87.8 °F 89.4 °F 64.4 °F 46% 29.90 in 30.0 mi NW 6.9 mph - N/A   Scattered Clouds
11:48 AM 91.4 °F 93.2 °F 64.4 °F 41% 29.87 in 30.0 mi WNW 5.8 mph - N/A   Scattered Clouds
12:47 PM 93.2 °F 94.1 °F 62.6 °F 36% 29.84 in 30.0 mi Variable 3.5 mph - N/A   Scattered Clouds
1:47 PM 96.8 °F 98.0 °F 62.6 °F 32% 29.80 in 30.0 mi West 15.0 mph - N/A   Scattered Clouds
2:48 PM 98.6 °F 100.0 °F 62.6 °F 30% 29.77 in 30.0 mi West 6.9 mph - N/A   Mostly Cloudy
3:47 PM 98.6 °F 100.0 °F 62.6 °F 30% 29.75 in 30.0 mi West 4.6 mph - N/A   Mostly Cloudy
4:47 PM 98.6 °F 99.4 °F 60.8 °F 29% 29.74 in 30.0 mi WSW 9.2 mph - N/A   Mostly Cloudy
5:47 PM 98.6 °F 99.4 °F 60.8 °F 29% 29.75 in 30.0 mi West 4.6 mph - N/A   Mostly Cloudy
6:51 PM 98.6 °F - 44.6 °F 16% 29.75 in 10.0 mi NW 6.9 mph - N/A   Overcast
7:06 PM 98.6 °F - 44.6 °F 16% 29.75 in 2.0 mi South 26.5 mph - N/A Thunderstorm Thunderstorm
7:47 PM 82.4 °F 85.4 °F 68.0 °F 62% 29.82 in 8.0 mi SE 16.1 mph 28.8 mph N/A Rain , Thunderstorm Thunderstorms and Rain
7:55 PM 82.4 °F 83.9 °F 64.4 °F 54% 29.83 in 10.0 mi East 16.1 mph - N/A Thunderstorm Scattered Clouds
8:15 PM 80.6 °F 81.8 °F 62.6 °F 54% 29.84 in 10.0 mi East 15.0 mph - N/A Thunderstorm Clear
8:35 PM 78.8 °F - 69.8 °F 74% 29.87 in 10.0 mi SE 17.3 mph 29.9 mph N/A Rain , Thunderstorm Light Thunderstorms and Rain
8:47 PM 75.2 °F - 73.4 °F 94% 29.90 in 4.0 mi SSE 17.3 mph 25.3 mph N/A Rain , Thunderstorm Heavy Thunderstorms and Rain
8:55 PM 73.4 °F - 69.8 °F 88% 29.90 in 1.8 mi SSE 5.8 mph - 0.50 in Rain , Thunderstorm Heavy Thunderstorms and Rain
9:15 PM 71.6 °F - 69.8 °F 94% 29.86 in 1.8 mi South 6.9 mph - 0.26 in Rain , Thunderstorm Heavy Thunderstorms and Rain
9:35 PM 75.2 °F - 69.8 °F 83% 29.85 in 10.0 mi SE 10.4 mph - 0.28 in Rain , Thunderstorm Light Thunderstorms and Rain
9:47 PM 75.2 °F - 71.6 °F 89% 29.86 in 8.0 mi SSE 15.0 mph 25.3 mph N/A Rain , Thunderstorm Thunderstorms and Rain
9:51 PM 75.2 °F - 71.6 °F 89% 29.86 in 8.0 mi SSE 15.0 mph 25.3 mph N/A Rain Rain
9:55 PM 75.2 °F - 69.8 °F 83% 29.87 in 10.0 mi Calm Calm - 0.28 in Rain Light Rain
10:15 PM 75.2 °F - 69.8 °F 83% 29.87 in 10.0 mi ESE 6.9 mph - 0.01 in Rain Light Rain
10:35 PM 75.2 °F - 71.6 °F 89% 29.87 in 10.0 mi SSE 4.6 mph - 0.01 in Rain Light Rain
10:47 PM 77.0 °F - 73.4 °F 89% 29.86 in 20.0 mi ESE 4.6 mph - N/A Rain Light Rain
10:55 PM 78.8 °F - 71.6 °F 78% 29.87 in 10.0 mi East 3.5 mph - 0.02 in Rain Light Rain
11:15 PM 78.8 °F - 73.4 °F 83% 29.87 in 10.0 mi East 4.6 mph - N/A   Clear
11:35 PM 78.8 °F - 73.4 °F 83% 29.87 in 10.0 mi SE 8.1 mph - N/A   Clear
11:47 PM 78.8 °F - 75.2 °F 89% 29.87 in 20.0 mi ESE 5.8 mph - N/A   Mostly Cloudy
11:55 PM 78.8 °F - 73.4 °F 83% 29.87 in 10.0 mi Calm Calm - N/A   Clear